AXM432 WIBB-WMKK

Flight info

Callsign AXM432
Flight time 0h 35m
Altitude 25000
Route SALAX SALAX1H
Aircraft A20N/M-SDE2E3FGHIRWXY/LB1

Departure

Time 2026-04-23 09:27
Airport Sultan Syarif Kasim II International Airport / Roesmin Nurjadin AFB (WIBB)

Arrival

Time 2026-04-23 10:03
Airport Kuala Lumpur International Airport (WMKK)
Time Latitude Longitude Altitude Speed Heading
2026-04-23 09:07 0.46517 101.44685 143 ft 0 kts 91°
2026-04-23 09:18 0.46517 101.44677 143 ft 2 kts 91°
2026-04-23 09:18 0.46518 101.44662 143 ft 2 kts 91°
2026-04-23 09:18 0.46518 101.44647 143 ft 2 kts 91°
2026-04-23 09:18 0.46519 101.44632 143 ft 2 kts 91°
2026-04-23 09:19 0.46519 101.44617 143 ft 2 kts 91°
2026-04-23 09:19 0.46519 101.44602 143 ft 2 kts 91°
2026-04-23 09:19 0.46520 101.44587 143 ft 2 kts 91°
2026-04-23 09:19 0.46520 101.44572 143 ft 2 kts 91°
2026-04-23 09:20 0.46521 101.44557 143 ft 2 kts 91°
2026-04-23 09:20 0.46524 101.44544 144 ft 2 kts 135°
2026-04-23 09:20 0.46535 101.44537 144 ft 0 kts 176°
2026-04-23 09:20 0.46542 101.44537 144 ft 1 kts 184°
2026-04-23 09:21 0.46543 101.44538 144 ft 0 kts 182°
2026-04-23 09:22 0.46538 101.44537 144 ft 1 kts 182°
2026-04-23 09:23 0.46517 101.44537 143 ft 4 kts 180°
2026-04-23 09:23 0.46478 101.44537 143 ft 6 kts 181°
2026-04-23 09:23 0.46428 101.44536 143 ft 8 kts 181°
2026-04-23 09:23 0.46380 101.44504 143 ft 10 kts 261°
2026-04-23 09:24 0.46336 101.44458 143 ft 11 kts 183°
2026-04-23 09:24 0.46249 101.44456 141 ft 13 kts 181°
2026-04-23 09:24 0.46144 101.44453 139 ft 16 kts 181°
2026-04-23 09:24 0.46061 101.44450 137 ft 18 kts 182°
2026-04-23 09:25 0.45873 101.44444 134 ft 21 kts 181°
2026-04-23 09:25 0.45713 101.44445 130 ft 23 kts 181°
2026-04-23 09:25 0.45542 101.44436 127 ft 25 kts 182°
2026-04-23 09:25 0.45360 101.44430 124 ft 26 kts 181°
2026-04-23 09:26 0.45183 101.44451 123 ft 24 kts 174°
2026-04-23 09:26 0.45117 101.44420 123 ft 8 kts 354°
2026-04-23 09:26 0.45177 101.44424 123 ft 8 kts 360°
2026-04-23 09:26 0.45300 101.44428 124 ft 42 kts
2026-04-23 09:27 0.45820 101.44443 133 ft 105 kts
2026-04-23 09:27 0.46735 101.44468 147 ft 155 kts
2026-04-23 09:27 0.47866 101.44478 485 ft 164 kts
2026-04-23 09:27 0.49020 101.44518 890 ft 171 kts
2026-04-23 09:28 0.50249 101.44559 1205 ft 186 kts
2026-04-23 09:28 0.51600 101.44557 1548 ft 203 kts
2026-04-23 09:28 0.53045 101.44532 1968 ft 216 kts
2026-04-23 09:28 0.54596 101.44501 2339 ft 234 kts
2026-04-23 09:29 0.56291 101.44471 2713 ft 251 kts 360°
2026-04-23 09:29 0.58097 101.44439 3095 ft 269 kts 360°
2026-04-23 09:29 0.59986 101.44407 3656 ft 279 kts 360°
2026-04-23 09:29 0.61926 101.44375 4396 ft 282 kts 359°
2026-04-23 09:30 0.63882 101.44343 5133 ft 286 kts 359°
2026-04-23 09:30 0.65890 101.44310 5886 ft 290 kts 359°
2026-04-23 09:30 0.67881 101.44278 6637 ft 294 kts 359°
2026-04-23 09:30 0.69947 101.44245 7418 ft 297 kts 358°
2026-04-23 09:31 0.72009 101.44212 8187 ft 300 kts 358°
2026-04-23 09:31 0.74068 101.44178 8945 ft 303 kts 357°
2026-04-23 09:31 0.76183 101.44143 9719 ft 305 kts 357°
2026-04-23 09:31 0.78300 101.44108 10372 ft 312 kts 356°
2026-04-23 09:32 0.80510 101.44067 10717 ft 329 kts 356°
2026-04-23 09:32 0.82870 101.44025 11030 ft 346 kts 356°
2026-04-23 09:32 0.85341 101.43984 11326 ft 363 kts 356°
2026-04-23 09:32 0.87896 101.43941 11648 ft 377 kts 356°
2026-04-23 09:33 0.90543 101.43900 12252 ft 382 kts 356°
2026-04-23 09:33 0.93162 101.43873 12924 ft 384 kts 357°
2026-04-23 09:33 0.95865 101.43855 13529 ft 389 kts 357°
2026-04-23 09:33 0.98554 101.43839 14112 ft 393 kts 357°
2026-04-23 09:34 1.01311 101.43823 14564 ft 397 kts 358°
2026-04-23 09:34 1.04067 101.43807 14731 ft 399 kts 358°
2026-04-23 09:34 1.06858 101.43791 14734 ft 398 kts 358°
2026-04-23 09:34 1.09617 101.43774 14738 ft 398 kts 358°
2026-04-23 09:35 1.12392 101.43758 14741 ft 398 kts 358°
2026-04-23 09:35 1.15123 101.43741 14742 ft 398 kts 358°
2026-04-23 09:35 1.17894 101.43723 14742 ft 398 kts 358°
2026-04-23 09:35 1.20674 101.43706 14743 ft 398 kts 358°
2026-04-23 09:36 1.23434 101.43687 14898 ft 405 kts 358°
2026-04-23 09:36 1.26261 101.43668 15549 ft 406 kts 358°
2026-04-23 09:36 1.29059 101.43649 16195 ft 408 kts 358°
2026-04-23 09:36 1.31909 101.43630 16751 ft 412 kts 358°
2026-04-23 09:37 1.34773 101.43612 17297 ft 416 kts 358°
2026-04-23 09:37 1.37667 101.43594 17942 ft 417 kts 358°
2026-04-23 09:37 1.40542 101.43575 18553 ft 419 kts 358°
2026-04-23 09:37 1.43465 101.43584 19082 ft 423 kts 360°
2026-04-23 09:38 1.46422 101.43653 19604 ft 426 kts
2026-04-23 09:38 1.49375 101.43738 20118 ft 430 kts
2026-04-23 09:38 1.52375 101.43823 20633 ft 433 kts
2026-04-23 09:38 1.55365 101.43903 21135 ft 437 kts
2026-04-23 09:39 1.58423 101.43984 21632 ft 440 kts
2026-04-23 09:39 1.61494 101.44062 22121 ft 443 kts
2026-04-23 09:39 1.64567 101.44140 22596 ft 447 kts
2026-04-23 09:39 1.67655 101.44217 23058 ft 450 kts
2026-04-23 09:40 1.70797 101.44295 23511 ft 453 kts
2026-04-23 09:40 1.73942 101.44374 23948 ft 456 kts
2026-04-23 09:40 1.77101 101.44453 24370 ft 458 kts
2026-04-23 09:40 1.80289 101.44533 24687 ft 461 kts
2026-04-23 09:41 1.83457 101.44612 24764 ft 457 kts
2026-04-23 09:41 1.86651 101.44693 24235 ft 457 kts
2026-04-23 09:41 1.89820 101.44774 23217 ft 463 kts
2026-04-23 09:41 1.93023 101.44855 22337 ft 464 kts
2026-04-23 09:42 1.96236 101.44935 21674 ft 460 kts
2026-04-23 09:42 1.99381 101.45260 21011 ft 456 kts 13°
2026-04-23 09:42 2.02326 101.46378 20368 ft 452 kts 26°
2026-04-23 09:42 2.05052 101.47823 19754 ft 447 kts 28°
2026-04-23 09:43 2.07782 101.49336 19068 ft 444 kts 28°
2026-04-23 09:43 2.10449 101.50811 18411 ft 440 kts 28°
2026-04-23 09:43 2.13095 101.52250 17767 ft 436 kts 27°
2026-04-23 09:43 2.15760 101.53685 17120 ft 432 kts 27°
2026-04-23 09:44 2.18381 101.55093 16482 ft 427 kts 27°
2026-04-23 09:44 2.20823 101.56697 15833 ft 425 kts 39°
2026-04-23 09:44 2.22891 101.58789 15301 ft 419 kts 48°
2026-04-23 09:44 2.24747 101.60956 14824 ft 402 kts 49°
2026-04-23 09:45 2.26675 101.62833 14117 ft 381 kts 31°
2026-04-23 09:45 2.29033 101.63745 13432 ft 358 kts
2026-04-23 09:45 2.31414 101.63496 12884 ft 337 kts 336°
2026-04-23 09:45 2.33252 101.62241 12398 ft 315 kts 308°
2026-04-23 09:46 2.34231 101.60371 11948 ft 297 kts 288°
2026-04-23 09:46 2.34986 101.58516 11516 ft 284 kts 297°
2026-04-23 09:46 2.36043 101.56895 11118 ft 277 kts 306°
2026-04-23 09:46 2.37229 101.55405 11040 ft 267 kts 301°
2026-04-23 09:47 2.38007 101.53754 10967 ft 268 kts 288°
2026-04-23 09:47 2.38833 101.52079 10628 ft 269 kts 310°
2026-04-23 09:47 2.40379 101.51079 10409 ft 272 kts 344°
2026-04-23 09:47 2.42276 101.51032 10248 ft 278 kts
2026-04-23 09:48 2.44208 101.51257 10082 ft 277 kts
2026-04-23 09:48 2.46099 101.51414 9930 ft 277 kts
2026-04-23 09:48 2.48023 101.51569 9775 ft 276 kts
2026-04-23 09:48 2.49945 101.51730 9621 ft 276 kts
2026-04-23 09:49 2.51839 101.51896 9470 ft 276 kts
2026-04-23 09:49 2.53745 101.52068 9272 ft 276 kts
2026-04-23 09:49 2.55652 101.52242 9019 ft 275 kts
2026-04-23 09:49 2.57542 101.52415 8748 ft 273 kts
2026-04-23 09:50 2.59438 101.52590 8466 ft 272 kts
2026-04-23 09:50 2.61277 101.53020 8132 ft 273 kts 29°
2026-04-23 09:50 2.62610 101.54281 7886 ft 269 kts 63°
2026-04-23 09:50 2.63127 101.56067 7922 ft 270 kts 88°
2026-04-23 09:51 2.63167 101.57966 7842 ft 272 kts 91°
2026-04-23 09:51 2.63162 101.59837 7538 ft 271 kts 91°
2026-04-23 09:51 2.63176 101.61729 7249 ft 269 kts 91°
2026-04-23 09:51 2.63185 101.63566 7022 ft 263 kts 97°
2026-04-23 09:52 2.62607 101.65210 6930 ft 245 kts 131°
2026-04-23 09:52 2.61312 101.66274 6623 ft 240 kts 149°
2026-04-23 09:52 2.59903 101.67155 6322 ft 238 kts 149°
2026-04-23 09:52 2.58508 101.68039 6025 ft 237 kts 149°
2026-04-23 09:53 2.57133 101.68929 5731 ft 235 kts 148°
2026-04-23 09:53 2.55771 101.69824 5438 ft 233 kts 148°
2026-04-23 09:53 2.54428 101.70712 5147 ft 232 kts 147°
2026-04-23 09:53 2.53095 101.71599 4840 ft 231 kts 147°
2026-04-23 09:54 2.51765 101.72490 4529 ft 231 kts 147°
2026-04-23 09:54 2.50441 101.73378 4220 ft 230 kts 147°
2026-04-23 09:54 2.49108 101.74273 3907 ft 229 kts 147°
2026-04-23 09:54 2.47795 101.75154 3599 ft 229 kts 146°
2026-04-23 09:55 2.46479 101.76037 3292 ft 228 kts 146°
2026-04-23 09:55 2.45168 101.76917 2986 ft 228 kts 146°
2026-04-23 09:55 2.43857 101.77795 2680 ft 227 kts 146°
2026-04-23 09:55 2.42619 101.78761 2488 ft 221 kts 127°
2026-04-23 09:56 2.42080 101.80180 2489 ft 225 kts 91°
2026-04-23 09:56 2.42477 101.81672 2496 ft 228 kts 60°
2026-04-23 09:56 2.43376 101.83008 2498 ft 229 kts 56°
2026-04-23 09:56 2.44292 101.84303 2494 ft 229 kts 55°
2026-04-23 09:57 2.45428 101.85396 2470 ft 231 kts 25°
2026-04-23 09:57 2.47014 101.85609 2485 ft 234 kts 347°
2026-04-23 09:57 2.48471 101.84905 2503 ft 235 kts 326°
2026-04-23 09:57 2.49804 101.83970 2496 ft 234 kts 324°
2026-04-23 09:58 2.51088 101.83058 2486 ft 222 kts 324°
2026-04-23 09:58 2.52317 101.82190 2479 ft 214 kts 325°
2026-04-23 09:58 2.53551 101.81334 2487 ft 215 kts 326°
2026-04-23 09:58 2.54787 101.80491 2489 ft 214 kts 326°
2026-04-23 09:59 2.56024 101.79658 2490 ft 214 kts 326°
2026-04-23 09:59 2.57248 101.78837 2491 ft 214 kts 326°
2026-04-23 09:59 2.58485 101.78009 2492 ft 214 kts 326°
2026-04-23 09:59 2.59734 101.77174 2489 ft 215 kts 326°
2026-04-23 10:00 2.60972 101.76345 2352 ft 212 kts 326°
2026-04-23 10:00 2.62156 101.75552 2151 ft 202 kts 326°
2026-04-23 10:00 2.63293 101.74790 1839 ft 193 kts 326°
2026-04-23 10:00 2.64381 101.74061 1586 ft 183 kts 326°
2026-04-23 10:01 2.65410 101.73371 1314 ft 173 kts 327°
2026-04-23 10:01 2.66385 101.72717 1075 ft 165 kts 327°
2026-04-23 10:01 2.67304 101.72101 847 ft 155 kts 327°
2026-04-23 10:01 2.68202 101.71504 674 ft 155 kts 327°
2026-04-23 10:02 2.69093 101.70916 495 ft 155 kts 327°
2026-04-23 10:02 2.69980 101.70320 266 ft 154 kts 327°
2026-04-23 10:02 2.70867 101.69727 64 ft 153 kts 327°
2026-04-23 10:02 2.71692 101.69175 36 ft 130 kts 327°
2026-04-23 10:03 2.72328 101.68749 33 ft 86 kts 326°
2026-04-23 10:03 2.72713 101.68491 32 ft 50 kts 327°
2026-04-23 10:03 2.72928 101.68407 33 ft 28 kts 351°
2026-04-23 10:03 2.73117 101.68385 35 ft 26 kts 353°
2026-04-23 10:04 2.73269 101.68323 35 ft 22 kts 326°
2026-04-23 10:04 2.73392 101.68240 37 ft 21 kts 326°
2026-04-23 10:04 2.73513 101.68156 38 ft 20 kts 326°
2026-04-23 10:04 2.73631 101.68090 40 ft 18 kts 354°
2026-04-23 10:05 2.73721 101.68179 38 ft 20 kts 55°
2026-04-23 10:05 2.73806 101.68303 35 ft 21 kts 56°
2026-04-23 10:05 2.73889 101.68427 35 ft 21 kts 57°
2026-04-23 10:05 2.73924 101.68510 35 ft 6 kts 112°
2026-04-23 10:06 2.73932 101.68556 35 ft 8 kts 54°
2026-04-23 10:06 2.73928 101.68610 35 ft 10 kts 152°
2026-04-23 10:06 2.73886 101.68632 35 ft 3 kts 145°
2026-04-23 10:06 2.73875 101.68639 35 ft 0 kts 147°